DW7857 Weather Reports


Display with metric or nautical units.
time (UTC)temp
F
wind
direction
speed
MPH
gust
MPH
rain 1hr
in
rain 24hr
in
rain mn
in
humidity
%
barometer
mb
20260502223603 52 165 1.0 2.0 0.00 0.39 0.39 100 1001.9
20260502222703 52 257 0.0 1.0 0.00 0.39 0.39 100 1002.1
20260502221803 52 315 0.0 1.0 0.00 0.39 0.39 100 1001.9
20260502220903 52 290 0.0 1.0 0.00 0.39 0.39 100 1002.2
20260502220003 52 155 0.0 2.0 0.00 0.39 0.39 100 1002.1
20260502215403 52 133 1.0 2.0 0.00 0.39 0.39 100 1002.3
20260502214712 52 128 0.0 2.0 0.00 0.39 0.39 100 1002.3
20260502213603 52 0 0.0 0.0 0.00 0.39 0.39 100 1002.1
20260502212703 52 0 0.0 0.0 0.00 0.39 0.39 100 1002.4
20260502212012 52 0 0.0 0.0 0.00 0.39 0.39 100 1002.2
20260502210903 52 113 0.0 1.0 0.00 0.39 0.39 100 1002.5
20260502210004 52 90 0.0 1.0 0.00 0.39 0.39 100 1002.0
20260502205403 52 315 1.0 2.0 0.00 0.39 0.39 100 1002.3
20260502204503 52 322 1.0 2.0 0.00 0.39 0.39 100 1002.4
20260502203603 52 315 1.0 2.0 0.00 0.39 0.39 100 1002.2
20260502202913 52 315 1.0 2.0 0.00 0.39 0.39 100 1002.4
20260502201803 52 328 1.0 2.0 0.00 0.39 0.39 100 1002.1
20260502200903 52 349 1.0 2.0 0.00 0.39 0.39 100 1002.0
20260502200003 53 63 1.0 2.0 0.00 0.39 0.39 100 1001.9
20260502195403 53 55 1.0 2.0 0.00 0.39 0.39 100 1002.0
20260502194503 53 38 1.0 2.0 0.00 0.39 0.39 100 1001.9
20260502193603 52 337 0.0 2.0 0.00 0.39 0.39 100 1002.4
20260502192703 52 315 0.0 2.0 0.00 0.39 0.39 100 1002.2
20260502192014 53 0 0.0 0.0 0.00 0.39 0.39 100 1002.4
20260502190903 53 0 0.0 0.0 0.00 0.39 0.39 100 1002.4
20260502190004 53 115 0.0 1.0 0.00 0.39 0.39 100 1002.6
20260502185614 53 87 1.0 2.0 0.00 0.39 0.39 100 1002.4
20260502184713 53 315 0.0 2.0 0.00 0.39 0.39 100 1002.5
20260502183603 53 59 0.0 2.0 0.01 0.39 0.39 100 1002.4
20260502182703 53 180 0.0 1.0 0.01 0.39 0.39 100 1002.5
20260502181803 53 90 0.0 1.0 0.01 0.39 0.39 100 1002.6
20260502180903 53 90 1.0 2.0 0.01 0.39 0.39 100 1002.6
20260502170214 53 245 1.0 2.0 0.06 0.38 0.38 97 1002.9
20260502163603 53 284 3.0 4.0 0.07 0.37 0.37 96 1003.2
20260502162703 53 30 2.0 4.0 0.05 0.34 0.34 96 1003.4
20260502161803 53 219 2.0 3.0 0.06 0.34 0.34 96 1003.4
20260502160903 53 213 1.0 2.0 0.05 0.32 0.32 96 1003.5
20260502151114 54 74 1.0 2.0 0.12 0.27 0.27 94 1003.6
20260502130214 55 197 2.0 3.0 0.01 0.01 0.01 76 1005.3
20260502123603 57 198 6.0 8.0 0.00 0.00 0.00 71 1005.9
20260502122914 58 214 5.0 8.0 0.00 0.00 0.00 72 1005.8
20260502121803 59 195 6.0 8.0 0.00 0.00 0.00 71 1005.9
20260502120903 60 188 3.0 5.0 0.00 0.00 0.00 71 1006.0
20260502115403 60 194 3.0 4.0 0.00 0.00 0.00 71 1006.2
20260502114503 60 209 4.0 5.0 0.00 0.00 0.00 70 1006.2
20260502113603 61 142 3.0 4.0 0.00 0.00 0.00 68 1006.5
20260502112703 62 125 3.0 4.0 0.00 0.00 0.00 66 1006.3
20260502111803 62 171 3.0 4.0 0.00 0.00 0.00 65 1006.6
20260502110903 62 242 3.0 5.0 0.00 0.00 0.00 64 1006.7
20260502110003 64 106 3.0 5.0 0.00 0.00 0.00 58 1006.9
20260502105403 64 66 2.0 4.0 0.00 0.00 0.00 57 1006.8
20260502104503 64 19 2.0 3.0 0.00 0.00 0.00 60 1006.9
20260502103603 63 248 3.0 4.0 0.00 0.00 0.00 63 1006.7
20260502102703 64 55 2.0 4.0 0.00 0.00 0.00 58 1007.1
20260502101803 63 146 2.0 3.0 0.00 0.00 0.00 61 1007.3
20260502100903 62 212 3.0 5.0 0.00 0.00 0.00 61 1007.6
20260502090903 62 182 2.0 3.0 0.00 0.00 0.00 65 1007.8
20260502071113 54 225 1.0 2.0 0.00 0.00 0.00 88 1008.7
20260502070003 54 225 0.0 1.0 0.00 0.00 0.00 90 1008.6
20260502065403 54 225 1.0 2.0 0.00 0.00 0.00 91 1008.6
20260502064503 55 169 1.0 2.0 0.00 0.00 0.00 92 1008.5
20260502063603 57 227 1.0 2.0 0.00 0.00 0.00 100 1008.6
20260502062703 55 170 1.0 2.0 0.00 0.00 0.00 100 1008.7
20260502061803 51 142 1.0 2.0 0.00 0.00 0.00 100 1008.6
20260502061112 49 131 1.0 2.0 0.00 0.00 0.00 100 1008.7
20260502060003 48 161 2.0 3.0 0.00 0.00 0.00 100 1008.6
20260502055403 47 177 2.0 3.0 0.00 0.00 0.00 100 1008.8
20260502054503 47 177 2.0 3.0 0.00 0.00 0.00 100 1009.1
20260502053603 47 188 3.0 4.0 0.00 0.00 0.00 100 1009.1
20260502052703 48 191 2.0 2.0 0.00 0.00 0.00 100 1009.1
20260502051803 48 192 1.0 2.0 0.00 0.00 0.00 100 1009.0
20260502050903 48 185 2.0 3.0 0.00 0.00 0.00 100 1009.0
20260502050004 47 189 2.0 3.0 0.00 0.00 0.00 100 1009.1
20260502045403 47 171 3.0 3.0 0.00 0.00 0.00 100 1009.0
20260502044504 47 179 3.0 4.0 0.00 0.00 0.00 97 1008.8
20260502043603 47 187 4.0 4.0 0.00 0.00 0.00 97 1009.0
20260502042703 48 188 2.0 3.0 0.00 0.00 0.00 100 1008.9
20260502041803 48 164 2.0 3.0 0.00 0.00 0.00 100 1008.9
20260502040903 48 90 1.0 2.0 0.00 0.00 0.00 97 1008.8
20260502040004 47 90 1.0 2.0 0.00 0.00 0.00 97 1008.8
20260502035403 47 90 0.0 1.0 0.00 0.00 0.00 97 1009.0
20260502034503 47 0 0.0 0.0 0.00 0.00 0.00 97 1008.9
20260502033603 47 0 0.0 0.0 0.00 0.00 0.00 97 1009.0
20260502032703 47 118 1.0 2.0 0.00 0.00 0.00 97 1009.3
20260502031803 47 180 1.0 2.0 0.00 0.00 0.00 97 1009.3
20260502030903 47 165 0.0 1.0 0.00 0.00 0.00 97 1009.6
20260502030003 47 180 1.0 2.0 0.00 0.00 0.00 97 1009.4
20260502025403 47 180 1.0 2.0 0.00 0.00 0.00 97 1009.6
20260502024713 47 193 1.0 2.0 0.00 0.00 0.00 97 1009.7